Regional Weather Roundup
Issued by NWS Midland/Odessa, TX

Skip options and go directly to product.
Home | Oldest Version | Previous Version | Current Version | All | Text Only | Save Text | Print | Product List | Glossary Off

Skip product version selection by date and time.   

555
ASUS44 KMAF 230310
RWRMAF
MIDLAND AREA WEATHER ROUNDUP
NATIONAL WEATHER SERVICE MIDLAND TX
900 PM CST MON DEC 22 2014

...IN SOUTHWEST TEXAS AND SOUTHEAST NEW MEXICO...

CITY           SKY/WX    TMP DP  RH WIND       PRES   REMARKS
ALPINE         FAIR      47  29  49 CALM      29.80S
ANDREWS        FAIR      49  32  53 E7        29.69S
ARTESIA        DRIZZLE   52  41  66 NE18G31   29.70R
BIG SPRING     CLOUDY    54  35  49 N12       29.72R
CARLSBAD       CLOUDY    64  32  30 W21       29.62R
DRYDEN           N/A     60  32  34 NW8       29.63S
FORT STOCKTON  CLOUDY    57  31  37 SW12      29.66F
GUAD PASS      NOT AVBL
HOBBS          LGT RAIN  46  36  66 N21       29.77R WCI  39
MARFA          PTCLDY    41  27  56 CALM      29.78S
MIDLAND AIRPK  CLOUDY    51  35  52 NE13      29.69R
MIDLAND INTL   CLOUDY    52  35  52 NE9       29.66R
ODESSA         CLOUDY    51  33  50 E10       29.66R
PECOS          CLOUDY    60  32  35 SW10      29.62F
PRESIDIO       FAIR      58  32  37 N9        29.70S
SEMINOLE       LGT RAIN  47  32  56 NE17G23   29.71R WCI  40
SNYDER         CLOUDY    50  33  51 N12       29.75R
WINK           CLOUDY    62  31  31 SW14      29.59S
$$
...OTHER STATIONS IN TEXAS...

CITY           SKY/WX    TMP DP  RH WIND       PRES   REMARKS
ABILENE        CLOUDY    52  35  52 NE5       29.71R
AMARILLO       CLOUDY    37  32  82 W8        29.77R WCI  31
AUSTIN         CLOUDY    57  53  86 NW3       29.66S
BROWNSVILLE    MOCLDY    66  65  96 S8        29.65F FOG
CORPUS CHRISTI PTCLDY    61  60  97 SE8       29.62F
DALLAS FTW     CLOUDY    57  42  57 W8        29.69R
DEL RIO        CLOUDY    53  50  89 CALM      29.63R FOG
EL PASO        PTCLDY    60  34  37 W25G32    29.74R
HOUSTON INT    PTCLDY    62  59  90 CALM      29.66R
LUBBOCK        LGT RAIN  40  36  86 NE14      29.75F WCI  32
SAN ANGELO     CLOUDY    56  36  47 SE5       29.66R
SAN ANTONIO    CLOUDY    60  53  77 CALM      29.66R
WACO           CLOUDY    56  43  61 NW9       29.70S
WICHITA FALLS  NOT AVBL
$$
...OTHER LOCATIONS IN NEW MEXICO...

CITY           SKY/WX    TMP DP  RH WIND       PRES   REMARKS
ALAMAGORDO     CLOUDY    55  30  38 N9        29.72S
ALBUQUERQUE    MOCLDY    45  31  58 N8        29.77R
CANNON AFB     LGT SNOW  32  32 100 E13       29.76S WCI  22
CLOVIS         CLOUDY    34  30  86 NE13      29.77S WCI  25
HOLLOMAN AFB   CLOUDY    55  31  40 N9        29.70S
ROSWELL        MOCLDY    55  39  54 N13       29.68R
RUIDOSO        RAIN      39  34  81 NW15G26   29.78S WCI  31
SANTA FE       LGT SNOW  32  29  88 N12       29.77R FOG     WCI  23
TRUTH OR CONSE CLEAR     57  28  33 NW8       29.77S
TUCUMCARI      CLOUDY    33  32  96 S3        29.76F
$$

USA.gov is the U.S. government's official web portal to all federal, state and local government web resources and services.